When you browse on this site, cookies collect data to enhance your experience and personalize the content and advertising you see.
Visit our Privacy Policy to learn more. By continuing to use the site, you agree to this use of cookies and data.
  • In Österreich
  • Länderverzeichnis
  • Für 7 Tage
  • Wassertemperatur
  • Wetterkarte
  • News
  • Widgets
  • user-avatar
    Anmelden

    Stündliche Wetter Gabrowo

    Heute, 15 Oktober, Dienstag

    Zeit Temperatur Niederschläge Wind Luftdruck Luftfeuchtigkeit
    00:00 +13°C° 0 mm 1 m/S 704 mmHg 50%
    01:00 +13°C° 0 mm 1 m/S 704 mmHg 52%
    02:00 +12°C° 0 mm 0 m/S 704 mmHg 53%
    03:00 +11°C° 0 mm 0 m/S 704 mmHg 54%
    04:00 +11°C° 0 mm 0 m/S 704 mmHg 55%
    05:00 +11°C° 0 mm 0 m/S 703 mmHg 55%
    06:00 +12°C° 0 mm 0 m/S 704 mmHg 53%
    07:00 +13°C° 0 mm 0 m/S 704 mmHg 51%
    08:00 +14°C° 0 mm 0 m/S 704 mmHg 48%
    09:00 +16°C° 0 mm 0 m/S 705 mmHg 43%
    10:00 +20°C° 0 mm 1 m/S 705 mmHg 37%
    11:00 +23°C° 0 mm 1 m/S 705 mmHg 32%
    12:00 +24°C° 0 mm 1 m/S 705 mmHg 30%
    13:00 +24°C° 0 mm 1 m/S 705 mmHg 27%
    14:00 +25°C° 0 mm 2 m/S 704 mmHg 25%
    15:00 +24°C° 0 mm 2 m/S 704 mmHg 29%
    16:00 +22°C° 0 mm 1 m/S 703 mmHg 33%
    17:00 +21°C° 0 mm 1 m/S 702 mmHg 38%
    18:00 +19°C° 0 mm 1 m/S 703 mmHg 41%
    19:00 +18°C° 0 mm 1 m/S 703 mmHg 43%
    20:00 +15°C° 0 mm 1 m/S 703 mmHg 46%
    21:00 +15°C° 0 mm 1 m/S 703 mmHg 49%
    22:00 +14°C° 0 mm 1 m/S 703 mmHg 52%
    23:00 +13°C° 0 mm 1 m/S 702 mmHg 55%

    Morgen, 16 Oktober, Mittwoch

    Zeit Temperatur Niederschläge Wind Luftdruck Luftfeuchtigkeit
    00:00 +13°C° 0 mm 1 m/S 702 mmHg 56%
    01:00 +13°C° 0 mm 1 m/S 702 mmHg 57%
    02:00 +13°C° 0 mm 1 m/S 702 mmHg 58%
    03:00 +11°C° 0 mm 0 m/S 702 mmHg 58%
    04:00 +11°C° 0 mm 0 m/S 702 mmHg 58%
    05:00 +11°C° 0 mm 0 m/S 702 mmHg 57%
    06:00 +12°C° 0 mm 0 m/S 702 mmHg 55%
    07:00 +13°C° 0 mm 0 m/S 702 mmHg 52%
    08:00 +14°C° 0 mm 0 m/S 703 mmHg 50%
    09:00 +16°C° 0 mm 0 m/S 703 mmHg 44%
    10:00 +18°C° 0 mm 0 m/S 704 mmHg 39%
    11:00 +20°C° 0 mm 0 m/S 704 mmHg 33%
    12:00 +23°C° 0 mm 1 m/S 704 mmHg 31%
    13:00 +24°C° 0 mm 1 m/S 704 mmHg 29%
    14:00 +25°C° 0 mm 2 m/S 703 mmHg 28%
    15:00 +23°C° 0 mm 1 m/S 703 mmHg 32%
    16:00 +22°C° 0 mm 1 m/S 702 mmHg 36%
    17:00 +21°C° 0 mm 1 m/S 702 mmHg 40%
    18:00 +19°C° 0 mm 1 m/S 702 mmHg 43%
    19:00 +18°C° 0 mm 1 m/S 702 mmHg 47%
    20:00 +15°C° 0 mm 1 m/S 702 mmHg 50%
    21:00 +15°C° 0 mm 1 m/S 702 mmHg 51%
    22:00 +14°C° 0 mm 1 m/S 703 mmHg 53%
    23:00 +14°C° 0 mm 1 m/S 703 mmHg 54%

    übermorgen, 17 Oktober, Donnerstag

    Zeit Temperatur Niederschläge Wind Luftdruck Luftfeuchtigkeit
    00:00 +13°C° 0 mm 0 m/S 703 mmHg 55%
    01:00 +12°C° 0 mm 0 m/S 703 mmHg 57%
    02:00 +12°C° 0 mm 0 m/S 703 mmHg 58%
    03:00 +12°C° 0 mm 0 m/S 703 mmHg 58%
    04:00 +12°C° 0 mm 1 m/S 702 mmHg 58%
    05:00 +12°C° 0 mm 1 m/S 702 mmHg 59%
    06:00 +13°C° 0 mm 1 m/S 703 mmHg 56%
    07:00 +14°C° 0 mm 1 m/S 703 mmHg 54%
    08:00 +15°C° 0 mm 1 m/S 703 mmHg 51%
    09:00 +18°C° 0 mm 1 m/S 704 mmHg 45%
    10:00 +21°C° 0 mm 1 m/S 704 mmHg 39%
    11:00 +23°C° 0 mm 1 m/S 705 mmHg 33%
    12:00 +24°C° 0 mm 1 m/S 704 mmHg 32%
    13:00 +24°C° 0 mm 1 m/S 704 mmHg 30%
    14:00 +25°C° 0 mm 2 m/S 704 mmHg 29%
    15:00 +24°C° 0 mm 2 m/S 704 mmHg 33%
    16:00 +22°C° 0 mm 1 m/S 703 mmHg 37%
    17:00 +21°C° 0 mm 1 m/S 703 mmHg 41%
    18:00 +20°C° 0 mm 1 m/S 703 mmHg 45%
    19:00 +18°C° 0 mm 1 m/S 703 mmHg 48%
    20:00 +16°C° 0 mm 1 m/S 703 mmHg 51%
    21:00 +15°C° 0 mm 1 m/S 703 mmHg 53%
    22:00 +15°C° 0 mm 1 m/S 703 mmHg 54%
    23:00 +15°C° 0 mm 1 m/S 703 mmHg 55%

    18 Oktober, Freitag

    Zeit Temperatur Niederschläge Wind Luftdruck Luftfeuchtigkeit
    00:00 +14°C° 0 mm 1 m/S 703 mmHg 56%
    01:00 +13°C° 0 mm 0 m/S 703 mmHg 57%
    02:00 +13°C° 0 mm 0 m/S 703 mmHg 58%
    03:00 +12°C° 0 mm 0 m/S 703 mmHg 58%
    04:00 +12°C° 0 mm 0 m/S 703 mmHg 59%
    05:00 +12°C° 0 mm 0 m/S 703 mmHg 59%
    06:00 +13°C° 0 mm 0 m/S 703 mmHg 57%
    07:00 +14°C° 0 mm 0 m/S 704 mmHg 55%
    08:00 +15°C° 0 mm 0 m/S 704 mmHg 52%
    09:00 +17°C° 0 mm 0 m/S 704 mmHg 47%
    10:00 +21°C° 0 mm 1 m/S 705 mmHg 41%
    11:00 +23°C° 0 mm 1 m/S 705 mmHg 35%
    12:00 +24°C° 0 mm 1 m/S 705 mmHg 34%
    13:00 +24°C° 0 mm 1 m/S 705 mmHg 33%
    14:00 +25°C° 0 mm 2 m/S 704 mmHg 31%
    15:00 +24°C° 0 mm 2 m/S 704 mmHg 35%
    16:00 +21°C° 0 mm 2 m/S 704 mmHg 38%
    17:00 +21°C° 0 mm 1 m/S 704 mmHg 41%
    18:00 +20°C° 0 mm 1 m/S 704 mmHg 44%
    19:00 +18°C° 0 mm 1 m/S 704 mmHg 47%
    20:00 +16°C° 0 mm 1 m/S 703 mmHg 50%
    21:00 +15°C° 0 mm 1 m/S 704 mmHg 51%
    22:00 +15°C° 0 mm 1 m/S 704 mmHg 52%
    23:00 +15°C° 0 mm 1 m/S 704 mmHg 53%

    19 Oktober, Samstag

    Zeit Temperatur Niederschläge Wind Luftdruck Luftfeuchtigkeit
    00:00 +14°C° 0 mm 1 m/S 704 mmHg 54%
    01:00 +14°C° 0 mm 1 m/S 703 mmHg 55%
    02:00 +12°C° 0 mm 0 m/S 703 mmHg 56%
    03:00 +12°C° 0 mm 0 m/S 703 mmHg 57%
    04:00 +12°C° 0 mm 0 m/S 703 mmHg 58%
    05:00 +11°C° 0 mm 0 m/S 703 mmHg 59%
    06:00 +12°C° 0 mm 0 m/S 704 mmHg 57%
    07:00 +13°C° 0 mm 0 m/S 704 mmHg 55%
    08:00 +14°C° 0 mm 0 m/S 704 mmHg 53%
    09:00 +16°C° 0 mm 0 m/S 705 mmHg 47%
    10:00 +18°C° 0 mm 0 m/S 705 mmHg 42%
    11:00 +22°C° 0 mm 1 m/S 705 mmHg 36%
    12:00 +23°C° 0 mm 1 m/S 705 mmHg 34%
    13:00 +23°C° 0 mm 1 m/S 705 mmHg 33%
    14:00 +24°C° 0 mm 2 m/S 705 mmHg 31%
    15:00 +23°C° 0 mm 2 m/S 704 mmHg 34%
    16:00 +21°C° 0 mm 2 m/S 704 mmHg 37%
    17:00 +21°C° 0 mm 1 m/S 704 mmHg 41%
    18:00 +19°C° 0 mm 1 m/S 704 mmHg 43%
    19:00 +18°C° 0 mm 1 m/S 704 mmHg 46%
    20:00 +15°C° 0 mm 1 m/S 704 mmHg 49%
    21:00 +15°C° 0 mm 1 m/S 704 mmHg 51%
    22:00 +14°C° 0 mm 1 m/S 704 mmHg 54%
    23:00 +14°C° 0 mm 1 m/S 704 mmHg 56%

    20 Oktober, Sonntag

    Zeit Temperatur Niederschläge Wind Luftdruck Luftfeuchtigkeit
    00:00 +13°C° 0 mm 1 m/S 704 mmHg 58%
    01:00 +13°C° 0 mm 1 m/S 704 mmHg 60%
    02:00 +12°C° 0 mm 1 m/S 704 mmHg 62%
    03:00 +12°C° 0 mm 1 m/S 704 mmHg 63%
    04:00 +11°C° 0 mm 0 m/S 703 mmHg 64%
    05:00 +11°C° 0 mm 0 m/S 703 mmHg 65%
    06:00 +11°C° 0 mm 0 m/S 704 mmHg 63%
    07:00 +12°C° 0 mm 0 m/S 704 mmHg 60%
    08:00 +13°C° 0 mm 0 m/S 704 mmHg 58%
    09:00 +16°C° 0 mm 1 m/S 705 mmHg 52%
    10:00 +19°C° 0 mm 1 m/S 705 mmHg 47%
    11:00 +21°C° 0 mm 1 m/S 705 mmHg 41%
    12:00 +20°C° 0 mm 2 m/S 705 mmHg 39%
    13:00 +21°C° 0 mm 2 m/S 705 mmHg 37%
    14:00 +23°C° 0 mm 2 m/S 705 mmHg 35%
    15:00 +21°C° 0 mm 2 m/S 705 mmHg 38%
    16:00 +20°C° 0 mm 2 m/S 704 mmHg 41%
    17:00 +19°C° 0 mm 2 m/S 704 mmHg 45%
    18:00 +17°C° 0 mm 2 m/S 704 mmHg 49%
    19:00 +16°C° 0 mm 2 m/S 704 mmHg 52%
    20:00 +14°C° 0 mm 1 m/S 704 mmHg 56%
    21:00 +14°C° 0 mm 1 m/S 704 mmHg 59%
    22:00 +13°C° 0 mm 1 m/S 704 mmHg 61%
    23:00 +13°C° 0 mm 1 m/S 705 mmHg 64%
    Mehr zeigen